NCR1851 SAZN-SAEZ

Flight info

Callsign NCR1851
Flight time 1h 19m
Altitude 33000
Route NIDB2C NIDBA ISMIL UT655 ASADA GESTA NEVLO
Aircraft B77L/H-V/N

Departure

Time 2026-05-07 23:16
Airport Presidente Perón International Airport (SAZN)

Arrival

Time 2026-05-08 00:36
Airport Ezeiza International Airport - Ministro Pistarini (SAEZ)
Time Latitude Longitude Altitude Speed Heading
2026-05-07 22:53 -38.95151 -68.14075 912 ft 0 kts 209°
2026-05-07 23:09 -38.95131 -68.14067 913 ft 6 kts 170°
2026-05-07 23:09 -38.95109 -68.14084 913 ft 1 kts 112°
2026-05-07 23:09 -38.95110 -68.14067 913 ft 0 kts 98°
2026-05-07 23:11 -38.95111 -68.14058 913 ft 8 kts 98°
2026-05-07 23:12 -38.95113 -68.13977 913 ft 5 kts 90°
2026-05-07 23:12 -38.95108 -68.13944 913 ft 4 kts 59°
2026-05-07 23:12 -38.95093 -68.13931 913 ft 2 kts 20°
2026-05-07 23:12 -38.95072 -68.13936 913 ft 4 kts 333°
2026-05-07 23:13 -38.95033 -68.13979 913 ft 10 kts 319°
2026-05-07 23:13 -38.94987 -68.14032 913 ft 7 kts 317°
2026-05-07 23:13 -38.94946 -68.14085 913 ft 11 kts 315°
2026-05-07 23:13 -38.94906 -68.14175 913 ft 10 kts 275°
2026-05-07 23:14 -38.94906 -68.14200 913 ft 0 kts 269°
2026-05-07 23:15 -38.94906 -68.14207 913 ft 10 kts 269°
2026-05-07 23:15 -38.94905 -68.14687 913 ft 101 kts 270°
2026-05-07 23:16 -38.94902 -68.15995 914 ft 192 kts 270°
2026-05-07 23:16 -38.94848 -68.18028 1216 ft 261 kts 277°
2026-05-07 23:16 -38.94102 -68.20462 1679 ft 325 kts 304°
2026-05-07 23:16 -38.92251 -68.22128 2431 ft 318 kts 342°
2026-05-07 23:17 -38.90123 -68.22059 3038 ft 316 kts 19°
2026-05-07 23:17 -38.88440 -68.20349 4022 ft 304 kts 50°
2026-05-07 23:17 -38.87175 -68.18193 5289 ft 304 kts 53°
2026-05-07 23:17 -38.85940 -68.15922 6207 ft 318 kts 53°
2026-05-07 23:18 -38.84651 -68.13501 6877 ft 332 kts 54°
2026-05-07 23:18 -38.83365 -68.11026 7497 ft 333 kts 54°
2026-05-07 23:18 -38.82136 -68.08492 7984 ft 336 kts 57°
2026-05-07 23:18 -38.81005 -68.05893 8577 ft 338 kts 60°
2026-05-07 23:19 -38.79912 -68.03180 8948 ft 347 kts 62°
2026-05-07 23:19 -38.78970 -68.00336 9191 ft 351 kts 69°
2026-05-07 23:19 -38.78263 -67.97300 9452 ft 352 kts 74°
2026-05-07 23:19 -38.77705 -67.94215 9391 ft 358 kts 77°
2026-05-07 23:20 -38.77216 -67.91150 9659 ft 344 kts 76°
2026-05-07 23:20 -38.76592 -67.88231 10411 ft 342 kts 72°
2026-05-07 23:20 -38.75887 -67.85269 11174 ft 347 kts 72°
2026-05-07 23:20 -38.75193 -67.82299 11925 ft 354 kts 72°
2026-05-07 23:21 -38.74535 -67.79222 12683 ft 360 kts 75°
2026-05-07 23:21 -38.74002 -67.76082 13436 ft 364 kts 76°
2026-05-07 23:21 -38.73386 -67.72905 14193 ft 367 kts 73°
2026-05-07 23:21 -38.72613 -67.69752 14928 ft 372 kts 70°
2026-05-07 23:22 -38.71747 -67.66597 15462 ft 382 kts 69°
2026-05-07 23:22 -38.70826 -67.63401 15966 ft 387 kts 68°
2026-05-07 23:22 -38.69864 -67.60138 16471 ft 387 kts 68°
2026-05-07 23:22 -38.68899 -67.56947 16968 ft 388 kts 66°
2026-05-07 23:23 -38.67851 -67.53770 17470 ft 389 kts 65°
2026-05-07 23:23 -38.66745 -67.50586 17973 ft 391 kts 64°
2026-05-07 23:23 -38.65620 -67.47423 18472 ft 394 kts 64°
2026-05-07 23:23 -38.64454 -67.44187 18980 ft 398 kts 63°
2026-05-07 23:24 -38.63287 -67.40966 19482 ft 401 kts 63°
2026-05-07 23:24 -38.62108 -67.37726 19983 ft 404 kts 63°
2026-05-07 23:24 -38.60914 -67.34456 20485 ft 407 kts 63°
2026-05-07 23:24 -38.59712 -67.31171 20986 ft 410 kts 63°
2026-05-07 23:25 -38.58486 -67.27879 21486 ft 412 kts 63°
2026-05-07 23:25 -38.57233 -67.24570 21988 ft 411 kts 62°
2026-05-07 23:25 -38.55971 -67.21261 22491 ft 412 kts 62°
2026-05-07 23:25 -38.54713 -67.17982 22989 ft 417 kts 62°
2026-05-07 23:26 -38.53422 -67.14632 23494 ft 421 kts 62°
2026-05-07 23:26 -38.52109 -67.11234 24001 ft 426 kts 62°
2026-05-07 23:26 -38.50794 -67.07840 24502 ft 430 kts 62°
2026-05-07 23:26 -38.49460 -67.04408 25004 ft 434 kts 62°
2026-05-07 23:27 -38.46752 -66.97462 26008 ft 439 kts 62°
2026-05-07 23:27 -38.45393 -66.93986 26507 ft 441 kts 62°
2026-05-07 23:27 -38.44009 -66.90455 27011 ft 443 kts 62°
2026-05-07 23:28 -38.42618 -66.86914 27515 ft 446 kts 62°
2026-05-07 23:28 -38.41228 -66.83382 27994 ft 450 kts 62°
2026-05-07 23:28 -38.39819 -66.79814 28384 ft 456 kts 62°
2026-05-07 23:28 -38.38372 -66.76158 28767 ft 462 kts 62°
2026-05-07 23:29 -38.36916 -66.72488 29145 ft 467 kts 62°
2026-05-07 23:29 -38.35440 -66.68779 29523 ft 470 kts 62°
2026-05-07 23:29 -38.33946 -66.65031 29902 ft 471 kts 62°
2026-05-07 23:29 -38.32459 -66.61354 30274 ft 471 kts 61°
2026-05-07 23:30 -38.30922 -66.57611 30653 ft 472 kts 60°
2026-05-07 23:30 -38.29400 -66.53938 31025 ft 472 kts 60°
2026-05-07 23:30 -38.27845 -66.50207 31404 ft 474 kts 60°
2026-05-07 23:30 -38.26304 -66.46525 31777 ft 477 kts 60°
2026-05-07 23:31 -38.24725 -66.42764 32156 ft 480 kts 60°
2026-05-07 23:31 -38.23160 -66.39047 32529 ft 484 kts 60°
2026-05-07 23:31 -38.21553 -66.35241 32848 ft 489 kts 60°
2026-05-07 23:31 -38.19933 -66.31418 32974 ft 497 kts 60°
2026-05-07 23:32 -38.16594 -66.23565 33000 ft 506 kts 60°
2026-05-07 23:32 -38.13237 -66.15707 32996 ft 507 kts 60°
2026-05-07 23:33 -38.09867 -66.07848 32995 ft 505 kts 60°
2026-05-07 23:33 -38.06496 -66.00019 32996 ft 504 kts 60°
2026-05-07 23:34 -38.03142 -65.92258 32996 ft 504 kts 60°
2026-05-07 23:34 -37.99749 -65.84441 32996 ft 504 kts 59°
2026-05-07 23:35 -37.96360 -65.76664 32996 ft 505 kts 59°
2026-05-07 23:35 -37.92958 -65.68890 32996 ft 505 kts 59°
2026-05-07 23:36 -37.89535 -65.61100 32996 ft 505 kts 59°
2026-05-07 23:36 -37.86113 -65.53341 32996 ft 505 kts 59°
2026-05-07 23:37 -37.82653 -65.45530 32996 ft 505 kts 59°
2026-05-07 23:37 -37.79220 -65.37810 32996 ft 505 kts 59°
2026-05-07 23:38 -37.75757 -65.30052 32996 ft 505 kts 59°
2026-05-07 23:38 -37.72298 -65.22337 32996 ft 505 kts 59°
2026-05-07 23:39 -37.68834 -65.14639 32996 ft 505 kts 59°
2026-05-07 23:39 -37.65357 -65.06943 32996 ft 505 kts 59°
2026-05-07 23:40 -37.61866 -64.99247 32996 ft 505 kts 59°
2026-05-07 23:40 -37.58349 -64.91524 32996 ft 505 kts 58°
2026-05-07 23:41 -37.54863 -64.83899 32996 ft 505 kts 58°
2026-05-07 23:41 -37.51320 -64.76183 32996 ft 505 kts 58°
2026-05-07 23:42 -37.47816 -64.68538 32996 ft 505 kts 59°
2026-05-07 23:42 -37.44369 -64.60857 32996 ft 505 kts 59°
2026-05-07 23:43 -37.41498 -64.54418 32996 ft 505 kts 59°
2026-05-07 23:43 -37.38041 -64.46676 32996 ft 505 kts 59°
2026-05-07 23:44 -37.34591 -64.38986 32996 ft 505 kts 59°
2026-05-07 23:44 -37.31133 -64.31324 32996 ft 505 kts 59°
2026-05-07 23:45 -37.27655 -64.23657 32996 ft 505 kts 59°
2026-05-07 23:45 -37.24178 -64.16029 32996 ft 505 kts 59°
2026-05-07 23:46 -37.20682 -64.08389 32996 ft 505 kts 58°
2026-05-07 23:46 -37.17168 -64.00738 32996 ft 505 kts 58°
2026-05-07 23:47 -37.13647 -63.93097 32996 ft 505 kts 58°
2026-05-07 23:47 -37.10139 -63.85506 32996 ft 505 kts 58°
2026-05-07 23:48 -37.06608 -63.77885 32996 ft 505 kts 58°
2026-05-07 23:48 -37.03064 -63.70258 32996 ft 505 kts 58°
2026-05-07 23:49 -36.99536 -63.62684 32996 ft 505 kts 58°
2026-05-07 23:49 -36.95995 -63.55099 32996 ft 505 kts 58°
2026-05-07 23:50 -36.92436 -63.47493 32996 ft 505 kts 58°
2026-05-07 23:50 -36.88896 -63.39946 32996 ft 505 kts 58°
2026-05-07 23:51 -36.85355 -63.32416 32996 ft 505 kts 58°
2026-05-07 23:51 -36.81788 -63.24846 32996 ft 505 kts 58°
2026-05-07 23:52 -36.78214 -63.17280 32996 ft 505 kts 58°
2026-05-07 23:52 -36.74639 -63.09728 32996 ft 505 kts 58°
2026-05-07 23:53 -36.71066 -63.02197 32996 ft 505 kts 58°
2026-05-07 23:53 -36.67484 -62.94665 32996 ft 505 kts 58°
2026-05-07 23:54 -36.63891 -62.87127 32996 ft 505 kts 58°
2026-05-07 23:54 -36.60293 -62.79595 32996 ft 505 kts 58°
2026-05-07 23:55 -36.56718 -62.72127 32996 ft 505 kts 58°
2026-05-07 23:55 -36.53102 -62.64593 32996 ft 505 kts 57°
2026-05-07 23:56 -36.49505 -62.57113 32996 ft 505 kts 57°
2026-05-07 23:56 -36.45903 -62.49641 32996 ft 505 kts 57°
2026-05-07 23:57 -36.42286 -62.42154 32996 ft 505 kts 57°
2026-05-07 23:57 -36.38687 -62.34719 32996 ft 505 kts 57°
2026-05-07 23:58 -36.35065 -62.27255 32996 ft 505 kts 57°
2026-05-07 23:58 -36.31431 -62.19781 32996 ft 505 kts 57°
2026-05-07 23:59 -36.27923 -62.12261 32997 ft 505 kts 60°
2026-05-07 23:59 -36.24728 -62.04482 32999 ft 506 kts 62°
2026-05-08 00:00 -36.21658 -61.96628 32996 ft 506 kts 63°
2026-05-08 00:00 -36.18635 -61.88776 32996 ft 506 kts 63°
2026-05-08 00:01 -36.15626 -61.80936 32995 ft 504 kts 63°
2026-05-08 00:01 -36.14119 -61.77011 32844 ft 503 kts 63°
2026-05-08 00:01 -36.12620 -61.73107 32612 ft 504 kts 63°
2026-05-08 00:02 -36.11110 -61.69180 32364 ft 501 kts 63°
2026-05-08 00:02 -36.09612 -61.65286 32111 ft 495 kts 63°
2026-05-08 00:02 -36.08136 -61.61454 31859 ft 491 kts 63°
2026-05-08 00:02 -36.06671 -61.57653 31608 ft 488 kts 63°
2026-05-08 00:03 -36.05226 -61.53911 31358 ft 484 kts 63°
2026-05-08 00:03 -36.03764 -61.50128 31104 ft 481 kts 63°
2026-05-08 00:03 -36.02341 -61.46449 30856 ft 479 kts 63°
2026-05-08 00:03 -36.00895 -61.42716 30602 ft 476 kts 63°
2026-05-08 00:04 -35.99466 -61.39034 30351 ft 474 kts 63°
2026-05-08 00:04 -35.98043 -61.35370 30098 ft 472 kts 63°
2026-05-08 00:04 -35.96626 -61.31724 29724 ft 472 kts 63°
2026-05-08 00:04 -35.95210 -61.28088 29289 ft 469 kts 63°
2026-05-08 00:05 -35.93801 -61.24473 28841 ft 466 kts 63°
2026-05-08 00:05 -35.92397 -61.20874 28389 ft 462 kts 63°
2026-05-08 00:05 -35.91019 -61.17346 27941 ft 459 kts 63°
2026-05-08 00:05 -35.89618 -61.13761 27483 ft 455 kts 63°
2026-05-08 00:06 -35.88256 -61.10281 27035 ft 452 kts 63°
2026-05-08 00:06 -35.86893 -61.06803 26584 ft 450 kts 63°
2026-05-08 00:06 -35.85532 -61.03335 26138 ft 454 kts 63°
2026-05-08 00:06 -35.84150 -60.99821 25691 ft 458 kts 63°
2026-05-08 00:07 -35.82747 -60.96255 25239 ft 459 kts 63°
2026-05-08 00:07 -35.81359 -60.92733 24792 ft 459 kts 63°
2026-05-08 00:07 -35.79956 -60.89176 24340 ft 458 kts 63°
2026-05-08 00:07 -35.78565 -60.85651 23889 ft 456 kts 63°
2026-05-08 00:08 -35.77179 -60.82142 23438 ft 454 kts 63°
2026-05-08 00:08 -35.75802 -60.78660 22987 ft 451 kts 63°
2026-05-08 00:08 -35.74439 -60.75215 22539 ft 449 kts 62°
2026-05-08 00:08 -35.73078 -60.71781 22106 ft 446 kts 62°
2026-05-08 00:09 -35.71718 -60.68351 21772 ft 446 kts 62°
2026-05-08 00:09 -35.70349 -60.64905 21467 ft 446 kts 62°
2026-05-08 00:09 -35.68990 -60.61489 21168 ft 446 kts 62°
2026-05-08 00:09 -35.67617 -60.58039 20866 ft 446 kts 62°
2026-05-08 00:10 -35.66260 -60.54635 20567 ft 445 kts 62°
2026-05-08 00:10 -35.64896 -60.51215 20266 ft 443 kts 62°
2026-05-08 00:10 -35.63528 -60.47790 19962 ft 441 kts 62°
2026-05-08 00:10 -35.62188 -60.44437 19664 ft 440 kts 62°
2026-05-08 00:11 -35.60833 -60.41048 19362 ft 438 kts 62°
2026-05-08 00:11 -35.59495 -60.37708 19062 ft 436 kts 62°
2026-05-08 00:11 -35.58146 -60.34343 18759 ft 434 kts 62°
2026-05-08 00:11 -35.56825 -60.31053 18461 ft 432 kts 62°
2026-05-08 00:12 -35.55491 -60.27731 18155 ft 431 kts 62°
2026-05-08 00:12 -35.54164 -60.24430 17795 ft 425 kts 62°
2026-05-08 00:12 -35.52891 -60.21264 17415 ft 407 kts 62°
2026-05-08 00:12 -35.51659 -60.18197 17030 ft 392 kts 62°
2026-05-08 00:13 -35.50471 -60.15244 16652 ft 384 kts 62°
2026-05-08 00:13 -35.49287 -60.12307 16272 ft 379 kts 62°
2026-05-08 00:13 -35.48129 -60.09438 15897 ft 375 kts 62°
2026-05-08 00:13 -35.47361 -60.07537 15647 ft 373 kts 62°
2026-05-08 00:14 -35.45835 -60.03765 15146 ft 369 kts 62°
2026-05-08 00:14 -35.45074 -60.01887 14895 ft 367 kts 62°
2026-05-08 00:14 -35.43951 -59.99115 14523 ft 365 kts 62°
2026-05-08 00:14 -35.42826 -59.96344 14148 ft 363 kts 62°
2026-05-08 00:15 -35.41701 -59.93572 13770 ft 360 kts 62°
2026-05-08 00:15 -35.40584 -59.90827 13394 ft 358 kts 62°
2026-05-08 00:15 -35.39478 -59.88107 13019 ft 356 kts 62°
2026-05-08 00:15 -35.38368 -59.85381 12641 ft 354 kts 62°
2026-05-08 00:16 -35.37270 -59.82687 12265 ft 352 kts 62°
2026-05-08 00:16 -35.36191 -59.80042 11894 ft 350 kts 62°
2026-05-08 00:16 -35.35096 -59.77360 11515 ft 348 kts 62°
2026-05-08 00:16 -35.34017 -59.74719 11140 ft 346 kts 62°
2026-05-08 00:17 -35.32944 -59.72093 10765 ft 345 kts 62°
2026-05-08 00:17 -35.31857 -59.69441 10517 ft 352 kts 62°
2026-05-08 00:17 -35.30745 -59.66727 10315 ft 349 kts 62°
2026-05-08 00:17 -35.29686 -59.64140 10057 ft 333 kts 62°
2026-05-08 00:18 -35.28671 -59.61659 9750 ft 321 kts 62°
2026-05-08 00:18 -35.27684 -59.59248 9444 ft 312 kts 62°
2026-05-08 00:18 -35.26723 -59.56906 9143 ft 308 kts 61°
2026-05-08 00:18 -35.25768 -59.54579 8841 ft 305 kts 61°
2026-05-08 00:19 -35.24823 -59.52282 8540 ft 302 kts 61°
2026-05-08 00:19 -35.23900 -59.49972 8237 ft 301 kts 64°
2026-05-08 00:19 -35.23104 -59.47593 7936 ft 299 kts 67°
2026-05-08 00:19 -35.22388 -59.45238 7633 ft 298 kts 69°
2026-05-08 00:20 -35.21684 -59.42829 7253 ft 298 kts 70°
2026-05-08 00:20 -35.21085 -59.40427 6879 ft 296 kts 73°
2026-05-08 00:20 -35.20557 -59.38003 6504 ft 294 kts 74°
2026-05-08 00:20 -35.20057 -59.35572 6128 ft 292 kts 75°
2026-05-08 00:21 -35.19586 -59.33196 5758 ft 289 kts 75°
2026-05-08 00:21 -35.19130 -59.30828 5589 ft 278 kts 75°
2026-05-08 00:21 -35.18675 -59.28446 5583 ft 301 kts 75°
2026-05-08 00:21 -35.18186 -59.25903 5569 ft 313 kts 75°
2026-05-08 00:22 -35.17677 -59.23266 5549 ft 319 kts 75°
2026-05-08 00:22 -35.17170 -59.20643 5526 ft 322 kts 75°
2026-05-08 00:22 -35.16649 -59.17959 5503 ft 324 kts 75°
2026-05-08 00:22 -35.16125 -59.15266 5479 ft 325 kts 75°
2026-05-08 00:23 -35.15600 -59.12570 5455 ft 325 kts 75°
2026-05-08 00:23 -35.15075 -59.09883 5430 ft 326 kts 75°
2026-05-08 00:23 -35.14552 -59.07215 5405 ft 326 kts 75°
2026-05-08 00:23 -35.14021 -59.04504 5380 ft 325 kts 75°
2026-05-08 00:24 -35.13496 -59.01833 5356 ft 325 kts 75°
2026-05-08 00:24 -35.12965 -58.99141 5331 ft 325 kts 75°
2026-05-08 00:24 -35.12425 -58.96470 5323 ft 327 kts 74°
2026-05-08 00:24 -35.11866 -58.93784 5238 ft 322 kts 74°
2026-05-08 00:25 -35.11306 -58.91131 5189 ft 324 kts 74°
2026-05-08 00:25 -35.10736 -58.88451 5138 ft 323 kts 73°
2026-05-08 00:25 -35.10175 -58.85828 5089 ft 322 kts 73°
2026-05-08 00:25 -35.09606 -58.83182 5039 ft 322 kts 73°
2026-05-08 00:26 -35.09032 -58.80518 4988 ft 321 kts 73°
2026-05-08 00:26 -35.08466 -58.77898 4939 ft 321 kts 73°
2026-05-08 00:26 -35.07895 -58.75269 4888 ft 320 kts 73°
2026-05-08 00:26 -35.07324 -58.72648 4838 ft 319 kts 73°
2026-05-08 00:27 -35.06747 -58.70008 4788 ft 319 kts 73°
2026-05-08 00:27 -35.06180 -58.67423 4738 ft 318 kts 73°
2026-05-08 00:27 -35.05607 -58.64823 4688 ft 318 kts 73°
2026-05-08 00:27 -35.05024 -58.62189 4637 ft 317 kts 73°
2026-05-08 00:28 -35.04451 -58.59610 4588 ft 317 kts 73°
2026-05-08 00:28 -35.03874 -58.57022 4538 ft 316 kts 73°
2026-05-08 00:28 -35.03293 -58.54434 4487 ft 316 kts 73°
2026-05-08 00:28 -35.02708 -58.51836 4402 ft 316 kts 73°
2026-05-08 00:29 -35.02131 -58.49287 4302 ft 315 kts 73°
2026-05-08 00:29 -35.01542 -58.46710 4202 ft 314 kts 73°
2026-05-08 00:29 -35.00955 -58.44154 4095 ft 302 kts 73°
2026-05-08 00:29 -35.00414 -58.41813 3982 ft 283 kts 73°
2026-05-08 00:30 -34.99886 -58.39546 3866 ft 266 kts 73°
2026-05-08 00:30 -34.99393 -58.37442 3751 ft 251 kts 73°
2026-05-08 00:30 -34.98918 -58.35437 3639 ft 238 kts 73°
2026-05-08 00:30 -34.98425 -58.33565 3543 ft 226 kts 67°
2026-05-08 00:31 -34.97533 -58.32102 3406 ft 214 kts 36°
2026-05-08 00:31 -34.96165 -58.31619 3299 ft 199 kts 359°
2026-05-08 00:31 -34.94833 -58.31727 3284 ft 192 kts 357°
2026-05-08 00:31 -34.93477 -58.31791 3273 ft 199 kts 358°
2026-05-08 00:32 -34.92074 -58.31832 3258 ft 203 kts 359°
2026-05-08 00:32 -34.90650 -58.32015 3231 ft 206 kts 348°
2026-05-08 00:32 -34.89300 -58.32561 3221 ft 208 kts 340°
2026-05-08 00:32 -34.87975 -58.33310 3176 ft 208 kts 327°
2026-05-08 00:33 -34.86822 -58.34361 3183 ft 210 kts 321°
2026-05-08 00:33 -34.85783 -58.35602 3130 ft 211 kts 309°
2026-05-08 00:33 -34.85079 -58.37202 2744 ft 217 kts 289°
2026-05-08 00:33 -34.84772 -58.39017 2282 ft 221 kts 279°
2026-05-08 00:34 -34.84525 -58.40853 1944 ft 219 kts 280°
2026-05-08 00:34 -34.84230 -58.42671 1652 ft 216 kts 282°
2026-05-08 00:34 -34.83925 -58.44440 1318 ft 215 kts 282°
2026-05-08 00:34 -34.83589 -58.46203 1058 ft 210 kts 283°
2026-05-08 00:35 -34.83256 -58.47956 733 ft 209 kts 282°
2026-05-08 00:35 -34.82939 -58.49654 451 ft 205 kts 283°
2026-05-08 00:35 -34.82627 -58.51341 208 ft 201 kts 282°
2026-05-08 00:35 -34.82341 -58.52914 83 ft 172 kts 282°
2026-05-08 00:36 -34.82184 -58.53794 83 ft 39 kts 283°
2026-05-08 00:36 -34.82144 -58.54019 83 ft 50 kts 282°
2026-05-08 00:36 -34.82090 -58.54319 83 ft 24 kts 282°
2026-05-08 00:36 -34.82064 -58.54462 83 ft 10 kts 283°
2026-05-08 00:37 -34.82026 -58.54530 83 ft 7 kts 334°
2026-05-08 00:37 -34.81987 -58.54528 83 ft 6 kts 15°
2026-05-08 00:37 -34.81943 -58.54501 83 ft 5 kts 36°
2026-05-08 00:38 -34.81941 -58.54499 83 ft 0 kts 37°
2026-05-08 00:39 -34.81940 -58.54499 83 ft 0 kts 37°
2026-05-08 00:39 -34.81934 -58.54493 83 ft 1 kts 37°
2026-05-08 00:40 -34.81919 -58.54479 83 ft 5 kts 37°
2026-05-08 00:40 -34.81881 -58.54445 83 ft 8 kts 37°
2026-05-08 00:40 -34.81833 -58.54402 83 ft 10 kts 36°
2026-05-08 00:40 -34.81802 -58.54375 83 ft 4 kts 36°
2026-05-08 00:41 -34.81768 -58.54341 83 ft 8 kts 52°
2026-05-08 00:41 -34.81771 -58.54273 83 ft 10 kts 105°
2026-05-08 00:41 -34.81785 -58.54186 83 ft 10 kts 99°
2026-05-08 00:41 -34.81796 -58.54104 83 ft 9 kts 98°
2026-05-08 00:42 -34.81790 -58.54035 83 ft 9 kts 73°
2026-05-08 00:42 -34.81762 -58.53966 83 ft 10 kts 60°
2026-05-08 00:42 -34.81722 -58.53892 83 ft 11 kts 53°
2026-05-08 00:42 -34.81674 -58.53814 83 ft 12 kts 53°
2026-05-08 00:43 -34.81623 -58.53743 83 ft 10 kts 41°
2026-05-08 00:43 -34.81576 -58.53693 83 ft 8 kts 40°
2026-05-08 00:43 -34.81533 -58.53657 83 ft 7 kts 28°
2026-05-08 00:43 -34.81488 -58.53629 83 ft 8 kts 27°
2026-05-08 00:44 -34.81434 -58.53599 83 ft 9 kts 22°
2026-05-08 00:44 -34.81368 -58.53584 83 ft 11 kts
2026-05-08 00:44 -34.81288 -58.53581 83 ft 12 kts
2026-05-08 00:44 -34.81216 -58.53588 83 ft 9 kts 344°
2026-05-08 00:45 -34.81161 -58.53579 83 ft 7 kts 15°
2026-05-08 00:45 -34.81122 -58.53567 83 ft 4 kts 11°
2026-05-08 00:45 -34.81100 -58.53563 83 ft 3 kts
2026-05-08 00:45 -34.81076 -58.53562 83 ft 4 kts 358°
2026-05-08 00:46 -34.81055 -58.53570 83 ft 2 kts 327°
2026-05-08 00:46 -34.81049 -58.53578 83 ft 1 kts 307°
2026-05-08 00:46 -34.81046 -58.53599 83 ft 3 kts 270°
2026-05-08 00:46 -34.81053 -58.53617 83 ft 2 kts 233°
2026-05-08 00:47 -34.81063 -58.53625 83 ft 2 kts 207°
2026-05-08 00:47 -34.81071 -58.53633 83 ft 1 kts 226°
2026-05-08 00:47 -34.81077 -58.53652 83 ft 2 kts 251°
2026-05-08 00:47 -34.81078 -58.53654 83 ft 0 kts 252°